Wind_Speed
25 25 25 26 27 28 29 30 29 29 30 32 32 32 33 34 34 34 35 36 37 38 39 40 41 42 42 43 44 44 45 45 45 45 45 45 46 45 45 46 46 46 46 46
25 26 26 27 28 28 29 30 30 32 32 33 33 33 33 33 34 35 35 36 38 39 40 40 41 42 43 43 43 44 45 46 47 47 47 47 47 47 47 47 47 48 47 47
26 26 27 27 28 29 29 29 30 31 32 33 33 33 32 33 34 35 36 36 36 37 39 40 41 41 42 44 45 45 45 45 47 48 49 48 48 49 49 48 48 48 49 49
27 26 27 27 28 29 29 29 30 31 33 33 33 34 32 33 33 34 35 35 36 36 37 39 40 42 43 44 45 45 45 45 46 48 49 49 49 50 50 50 50 50 50 50
27 26 27 27 27 29 30 30 30 31 33 33 33 35 33 33 33 34 35 35 35 36 36 37 38 41 42 43 45 45 45 46 47 48 49 49 50 51 51 52 52 52 52 52
27 27 27 27 27 28 29 30 32 32 33 34 32 34 34 32 32 33 34 35 35 36 36 38 39 40 42 43 44 45 45 46 47 47 48 48 49 50 51 52 53 53 53 53
27 27 27 27 27 27 28 30 32 33 33 33 32 34 33 32 32 32 33 34 35 36 37 38 40 41 42 43 44 45 46 46 47 48 48 49 50 50 51 52 53 54 54 54
28 27 27 27 27 28 28 29 31 33 33 33 32 33 32 31 31 31 32 33 33 35 36 38 40 41 42 43 43 44 44 45 46 47 48 48 49 51 51 52 53 54 54 55
30 29 28 28 28 28 28 29 30 32 34 34 34 34 32 31 31 32 32 33 34 34 35 37 38 40 41 42 43 43 43 44 44 44 46 47 47 49 50 51 52 54 55 55
30 31 29 29 29 28 29 29 30 31 33 35 35 34 32 31 31 32 32 33 34 35 35 36 36 37 39 41 43 44 44 44 44 45 45 47 47 48 49 50 51 52 54 55
30 31 30 30 29 28 29 30 31 33 33 35 36 35 33 32 33 33 34 34 34 35 35 35 36 37 38 39 42 44 45 46 46 46 46 47 48 49 49 49 51 52 53 54
30 31 30 30 30 30 30 30 32 34 35 36 37 36 32 33 33 34 35 35 35 35 35 35 36 37 38 39 40 42 44 45 46 47 47 47 49 49 50 50 50 51 52 53
30 32 33 32 31 31 31 31 33 35 36 37 38 37 34 34 34 35 36 36 36 36 36 37 38 38 39 39 40 41 43 44 46 47 47 47 48 48 49 50 51 51 52 52
32 33 34 34 33 32 32 32 33 35 36 37 37 36 34 34 35 37 38 38 38 38 38 39 39 39 40 40 40 41 42 43 45 45 47 47 48 48 49 49 50 51 52 52
33 34 34 34 33 33 32 32 33 35 35 38 37 37 35 34 36 37 38 38 39 39 39 40 40 40 41 41 41 41 42 42 44 45 46 47 47 48 48 49 50 51 52 52
33 34 34 33 32 33 34 33 33 34 35 36 37 36 34 35 36 37 38 38 38 38 38 39 40 40 41 41 42 42 42 42 43 44 45 46 46 46 47 48 49 50 51 51
32 33 34 33 33 34 35 31 32 34 34 35 36 35 35 36 36 37 38 38 39 39 39 39 40 40 40 41 41 42 42 42 42 43 44 45 45 46 47 48 48 49 50 52
32 33 34 35 35 36 33 31 32 33 33 34 35 36 36 37 36 37 38 39 39 40 40 40 40 41 41 41 42 42 42 42 42 43 44 45 46 46 46 47 48 49 49 51
31 32 33 35 36 36 34 32 33 34 33 34 35 36 36 36 37 36 38 39 39 40 40 40 40 40 41 41 42 42 42 42 42 43 43 45 46 47 47 48 49 49 50 50
31 32 34 35 37 37 34 33 33 35 35 35 36 37 37 37 37 36 37 38 39 39 39 39 39 39 40 40 41 41 42 42 43 43 43 44 46 47 47 48 49 49 50 51
32 33 34 35 36 36 34 33 34 35 36 36 36 36 36 37 37 37 37 38 38 39 39 39 39 39 40 40 40 41 41 42 43 43 44 44 45 46 47 48 48 49 50 51
34 35 35 36 36 36 35 35 35 36 36 36 36 36 37 37 37 37 38 38 38 38 39 39 39 39 39 40 40 40 41 42 43 44 45 45 46 47 47 48 48 49 49 50
35 36 37 37 37 38 37 37 37 37 37 37 37 36 37 37 37 37 38 38 39 38 39 39 38 38 39 39 39 40 40 41 42 43 44 45 46 47 48 48 48 49 49 49
36 37 38 38 37 38 38 38 37 37 37 37 37 36 36 37 37 38 38 39 39 39 39 39 38 39 40 40 40 40 40 41 41 42 43 44 45 47 47 48 49 49 49 49
36 37 37 37 37 37 37 37 37 37 37 37 37 36 37 37 38 39 39 39 39 39 39 39 39 39 40 40 40 40 40 40 41 42 43 43 45 46 47 47 48 48 48 48
35 36 37 37 37 38 37 37 38 38 37 37 37 37 38 38 39 40 39 39 39 39 39 39 39 39 40 40 40 40 40 40 40 41 42 43 44 44 45 46 46 46 47 47
Wind_Direction
284 283 282 281 278 276 274 272 271 270 269 268 267 266 265 264 262 259 258 257 256 256 257 258 257 256 255 255 255 254 253 253 253 253 253 253 253 252 251 251 252 252 253 254
284 285 284 281 278 276 276 274 272 272 271 270 268 267 266 266 264 263 262 261 260 258 259 258 258 256 256 255 255 255 255 256 255 254 254 254 254 253 252 252 252 253 254 254
285 286 284 282 280 278 277 277 275 274 273 272 271 268 268 267 266 265 264 264 263 262 260 259 257 256 256 256 256 256 256 257 256 256 255 255 254 254 254 254 253 253 254 255
285 285 283 282 281 279 278 278 277 276 275 274 273 272 268 269 269 267 266 265 265 265 263 261 259 257 257 257 256 256 257 257 257 256 256 255 254 254 253 254 254 254 255 256
286 285 284 283 282 280 279 278 277 277 276 274 273 273 270 270 269 269 268 268 267 267 265 262 260 258 257 258 258 258 257 257 256 256 256 255 255 254 254 254 255 255 256 257
287 286 286 284 282 281 280 278 277 277 277 274 274 274 273 272 271 270 270 269 268 267 266 264 262 261 259 258 259 259 258 257 256 256 256 256 256 255 255 255 255 256 257 257
289 287 287 285 282 281 281 281 280 279 277 276 276 276 275 274 273 273 272 271 270 268 267 265 264 264 262 260 259 259 259 258 257 257 257 257 256 256 256 256 256 256 257 257
291 289 288 287 285 283 281 281 280 281 280 279 278 277 277 276 276 275 275 274 272 270 268 267 266 265 264 262 261 260 260 260 259 259 258 259 258 257 257 257 257 257 257 257
292 289 288 287 286 285 284 281 281 281 282 282 280 279 278 279 279 278 277 276 274 272 271 270 269 267 265 264 262 261 260 260 260 260 260 259 259 258 257 257 257 258 258 259
291 291 290 289 286 284 283 284 283 282 283 284 283 283 282 281 280 279 278 277 275 273 272 271 271 270 267 265 262 261 260 260 261 261 261 261 260 259 259 258 258 259 259 260
291 292 292 289 287 285 283 282 282 282 282 284 285 284 284 282 281 280 278 277 275 274 272 271 270 270 268 266 264 261 261 261 260 261 261 262 262 261 261 260 260 260 260 260
290 292 292 291 289 286 283 282 283 282 283 283 284 285 285 283 282 280 279 278 276 275 273 272 271 271 270 268 266 265 263 262 261 261 261 262 262 262 262 261 261 261 261 261
291 290 291 291 290 287 285 284 283 283 282 282 282 285 285 282 281 281 281 280 277 276 274 272 271 271 271 270 268 268 266 264 262 261 261 262 262 263 262 262 261 261 262 262
289 290 289 290 290 288 286 285 282 281 282 282 283 284 284 283 282 282 283 282 279 276 276 274 273 272 272 271 270 269 267 266 264 263 262 262 263 262 262 262 262 262 262 262
288 289 289 289 287 286 285 285 283 282 282 283 283 283 285 285 284 284 283 282 280 279 278 277 275 273 273 273 271 269 268 267 266 264 264 264 264 263 262 262 262 261 261 262
290 290 289 288 288 286 284 284 284 284 284 284 284 283 285 285 284 284 284 282 280 279 279 278 276 274 274 273 271 270 269 268 267 265 265 265 264 263 263 263 262 262 262 261
291 291 290 289 288 286 285 287 286 286 285 286 285 286 285 284 284 283 283 282 281 279 279 278 277 275 274 274 272 271 270 269 268 267 266 266 265 264 264 264 264 263 263 262
292 291 291 292 290 287 290 288 287 287 286 286 285 286 286 286 285 283 283 283 281 280 279 278 278 277 276 275 273 272 270 269 268 268 267 266 266 266 266 265 265 265 265 264
292 292 292 293 292 291 290 290 289 289 286 286 287 287 287 287 286 285 285 284 283 281 280 279 279 278 277 277 275 273 271 269 269 268 268 267 267 267 267 267 267 267 266 266
294 292 292 292 292 293 294 292 291 291 289 288 288 288 288 288 289 288 286 285 283 282 281 280 279 279 279 278 277 274 272 271 271 270 269 269 268 268 268 268 269 269 268 267
294 294 294 293 293 294 295 294 292 292 292 291 291 289 288 289 290 290 288 287 285 284 282 281 280 280 279 279 278 276 274 272 272 272 271 270 269 269 269 269 270 270 269 268
294 294 293 293 293 295 296 294 293 293 292 292 291 290 288 289 290 290 288 287 286 286 284 283 282 281 280 279 279 277 276 274 273 272 272 271 271 271 270 270 270 271 270 269
291 291 291 291 292 293 293 293 292 292 292 292 291 290 289 289 290 289 288 288 287 287 286 285 284 282 281 281 280 279 277 275 274 274 273 273 273 273 272 272 272 272 271 270
292 290 289 290 291 291 291 290 291 291 291 291 290 290 290 291 290 289 289 289 288 287 286 286 284 283 283 282 281 280 278 277 277 276 276 275 276 275 275 274 273 273 272 270
293 291 290 290 290 290 290 289 289 289 290 290 291 291 291 290 290 290 290 289 288 287 287 286 285 284 284 283 283 281 280 279 278 278 278 278 278 277 276 275 274 273 272 271
292 291 291 291 292 292 291 290 289 289 289 289 290 290 290 289 290 290 290 289 289 288 287 287 286 286 285 284 284 282 281 280 280 280 279 279 280 279 278 276 276 275 273 271
Height
5704 5704 5702 5701 5699 5698 5697 5696 5696 5696 5695 5695 5695 5695 5695 5695 5696 5697 5697 5697 5698 5699 5700 5701 5702 5702 5703 5705 5706 5707 5709 5710 5712 5713 5714 5716 5718 5720 5722 5724 5725 5727 5729 5731
5697 5696 5695 5692 5691 5689 5688 5688 5688 5687 5686 5685 5685 5686 5686 5685 5686 5687 5687 5687 5688 5689 5689 5690 5690 5691 5692 5693 5694 5696 5697 5699 5700 5701 5703 5704 5706 5708 5710 5711 5713 5715 5717 5719
5689 5689 5686 5684 5682 5681 5680 5679 5678 5678 5677 5675 5675 5676 5677 5676 5675 5676 5676 5676 5677 5678 5678 5678 5679 5679 5680 5682 5683 5684 5685 5687 5688 5689 5690 5691 5693 5695 5697 5699 5701 5703 5705 5707
5680 5679 5677 5675 5674 5672 5671 5670 5669 5668 5667 5666 5666 5664 5668 5667 5666 5666 5666 5666 5666 5667 5667 5667 5667 5668 5669 5670 5671 5672 5673 5674 5675 5676 5677 5678 5680 5682 5685 5687 5688 5690 5692 5694
5672 5671 5669 5667 5666 5664 5662 5661 5660 5658 5657 5656 5656 5654 5657 5657 5656 5656 5656 5655 5655 5655 5656 5656 5656 5657 5657 5658 5659 5660 5661 5662 5663 5663 5664 5665 5667 5669 5671 5673 5675 5677 5679 5681
5664 5662 5660 5659 5657 5655 5654 5653 5651 5649 5647 5646 5647 5645 5645 5647 5647 5646 5646 5645 5645 5645 5644 5644 5644 5645 5646 5646 5647 5648 5648 5649 5650 5650 5651 5652 5654 5655 5657 5659 5661 5663 5665 5667
5656 5654 5652 5650 5649 5647 5645 5644 5641 5639 5637 5637 5637 5634 5636 5637 5636 5636 5635 5635 5634 5634 5633 5633 5633 5633 5633 5634 5634 5635 5636 5636 5637 5637 5638 5639 5640 5641 5643 5645 5647 5649 5651 5653
5646 5646 5644 5642 5640 5638 5637 5635 5633 5630 5628 5628 5627 5625 5628 5627 5626 5625 5625 5624 5623 5623 5622 5621 5621 5621 5621 5621 5621 5622 5623 5623 5624 5624 5625 5625 5626 5628 5629 5630 5632 5634 5636 5638
5637 5637 5636 5633 5631 5630 5627 5626 5625 5622 5618 5617 5616 5617 5618 5617 5616 5615 5614 5613 5612 5612 5611 5610 5610 5609 5609 5609 5609 5609 5610 5610 5611 5611 5611 5612 5612 5614 5615 5616 5618 5619 5621 5623
5629 5627 5627 5624 5623 5621 5619 5617 5615 5612 5609 5607 5607 5607 5608 5607 5606 5605 5604 5602 5601 5600 5599 5599 5598 5597 5596 5596 5596 5597 5597 5597 5598 5598 5598 5599 5599 5600 5601 5602 5604 5605 5606 5608
5621 5619 5617 5616 5614 5612 5610 5609 5606 5603 5601 5598 5596 5599 5599 5597 5596 5594 5593 5591 5590 5589 5588 5587 5586 5585 5584 5584 5583 5584 5584 5584 5584 5584 5585 5585 5586 5586 5587 5588 5589 5590 5591 5593
5612 5610 5608 5607 5605 5602 5600 5599 5597 5595 5592 5589 5586 5590 5589 5587 5585 5583 5582 5580 5579 5578 5577 5576 5575 5574 5573 5572 5571 5571 5571 5570 5570 5571 5571 5572 5572 5572 5573 5573 5574 5575 5576 5577
5604 5601 5599 5597 5597 5594 5591 5590 5587 5584 5582 5579 5577 5580 5579 5577 5574 5572 5570 5569 5567 5566 5565 5564 5563 5562 5560 5559 5559 5558 5557 5557 5557 5557 5557 5557 5558 5558 5558 5559 5559 5560 5561 5562
5595 5592 5591 5589 5586 5583 5581 5580 5577 5574 5571 5570 5569 5569 5569 5566 5563 5561 5559 5557 5555 5555 5553 5552 5551 5550 5548 5547 5546 5545 5544 5544 5544 5543 5543 5543 5544 5544 5544 5544 5545 5545 5546 5547
5585 5583 5581 5579 5576 5574 5571 5570 5568 5565 5562 5560 5560 5558 5557 5555 5552 5550 5547 5545 5544 5543 5541 5540 5539 5538 5536 5535 5534 5533 5531 5531 5530 5530 5530 5529 5529 5530 5530 5529 5530 5530 5531 5532
5575 5573 5571 5569 5567 5564 5561 5560 5558 5555 5553 5550 5548 5547 5547 5544 5541 5538 5536 5534 5532 5531 5529 5528 5526 5525 5524 5522 5521 5520 5519 5518 5517 5517 5516 5516 5516 5516 5516 5515 5516 5516 5516 5517
5566 5563 5561 5559 5557 5553 5551 5552 5548 5546 5543 5541 5537 5538 5535 5532 5530 5527 5525 5522 5520 5519 5517 5515 5514 5512 5511 5509 5508 5507 5506 5505 5504 5503 5503 5503 5502 5502 5502 5502 5502 5502 5502 5502
5558 5554 5551 5548 5546 5542 5545 5542 5538 5535 5533 5530 5527 5526 5523 5521 5518 5516 5513 5511 5508 5506 5505 5503 5501 5499 5498 5496 5495 5494 5492 5492 5491 5490 5490 5489 5489 5489 5488 5488 5487 5487 5487 5487
5549 5546 5542 5538 5534 5532 5534 5531 5528 5524 5523 5521 5517 5515 5512 5509 5507 5506 5502 5499 5496 5494 5492 5490 5488 5486 5485 5483 5482 5481 5480 5478 5478 5477 5476 5476 5475 5475 5474 5473 5473 5473 5472 5472
5541 5537 5534 5529 5524 5522 5524 5521 5516 5514 5512 5511 5506 5503 5501 5498 5496 5495 5491 5488 5485 5482 5480 5478 5476 5474 5472 5471 5469 5468 5466 5466 5465 5464 5463 5462 5462 5461 5460 5459 5459 5458 5457 5457
5531 5527 5524 5520 5515 5513 5513 5510 5506 5504 5503 5499 5495 5492 5490 5487 5485 5483 5479 5476 5473 5471 5468 5466 5464 5462 5460 5458 5456 5455 5453 5452 5452 5450 5449 5448 5447 5447 5446 5445 5444 5443 5442 5442
5521 5517 5514 5511 5507 5507 5503 5499 5496 5494 5490 5487 5484 5481 5479 5476 5473 5470 5467 5464 5462 5459 5457 5454 5452 5450 5448 5446 5444 5442 5441 5439 5438 5437 5436 5434 5433 5432 5431 5430 5429 5428 5427 5426
5512 5509 5504 5502 5500 5496 5492 5488 5485 5483 5480 5476 5473 5470 5468 5465 5462 5459 5456 5453 5450 5447 5445 5442 5440 5438 5435 5433 5431 5430 5428 5426 5425 5423 5422 5420 5419 5417 5416 5415 5413 5412 5411 5410
5501 5497 5494 5490 5489 5485 5481 5478 5475 5472 5468 5465 5462 5459 5456 5454 5450 5447 5444 5441 5438 5435 5433 5430 5428 5425 5423 5421 5419 5417 5415 5413 5411 5409 5408 5406 5404 5402 5400 5399 5398 5396 5395 5394
5490 5485 5482 5479 5477 5474 5471 5467 5464 5461 5457 5454 5451 5448 5445 5442 5439 5436 5433 5429 5426 5423 5420 5418 5415 5413 5410 5408 5406 5403 5402 5400 5398 5396 5394 5392 5390 5388 5386 5384 5382 5381 5379 5378
5479 5475 5471 5468 5466 5463 5460 5456 5453 5450 5447 5443 5440 5437 5434 5431 5428 5424 5421 5417 5414 5411 5408 5405 5403 5400 5398 5395 5393 5390 5388 5386 5384 5382 5380 5378 5376 5373 5371 5369 5367 5364 5364 5362